"Sample Date","Sample Time","Sample Value","Units","Flow Rate","Sample Interval","Number Channels","Micron Size 0","Counts/Channel 0","Micron Size 1","Counts/Channel 1","Micron Size 2","Counts/Channel 2","Micron Size 3","Counts/Channel 3","Micron Size 4","Counts/Channel 4","Micron Size 5","Counts/Channel 5","Micron Size 6","Counts/Channel 6","Micron Size 7","Counts/Channel 7","Micron Size 8","Counts/Channel 8","Micron Size 9","Counts/Channel 9","Micron Size 10","Counts/Channel 10","Micron Size 11","Counts/Channel 11","Micron Size 12","Counts/Channel 12","Micron Size 13","Counts/Channel 13","Micron Size 14","Counts/Channel 14","Micron Size 15","Counts/Channel 15","Micron Size 16","Counts/Channel 16","Micron Size 17","Counts/Channel 17","Micron Size 18","Counts/Channel 18","Micron Size 19","Counts/Channel 19","Micron Size 20","Counts/Channel 20","Micron Size 21","Counts/Channel 21","Micron Size 22","Counts/Channel 22","Micron Size 23","Counts/Channel 23","Micron Size 24","Counts/Channel 24","Micron Size 25","Counts/Channel 25","Micron Size 26","Counts/Channel 26","Micron Size 27","Counts/Channel 27","Micron Size 28","Counts/Channel 28","Micron Size 29","Counts/Channel 29","Micron Size 30","Counts/Channel 30","Micron Size 31","Counts/Channel 31"
"03/11/08","19:00:00",228526.000,"cc",28273.432,6.00,6,0.100,174952.000,0.200,45498.000,0.300,4208.000,0.500,2773.000,1.000,1095.000,5.000,0
"03/11/08","19:00:06",247205.000,"cc",28332.484,6.00,6,0.100,159824.000,0.200,77383.000,0.300,5984.000,0.500,2918.000,1.000,1096.000,5.000,0
"03/11/08","19:00:12",304022.000,"cc",28376.977,6.00,6,0.100,254042.000,0.200,42044.000,0.300,4040.000,0.500,2868.000,1.000,1028.000,5.000,0
"03/11/08","19:00:18",228396.000,"cc",28263.570,6.00,6,0.100,199915.000,0.200,21919.000,0.300,2995.000,0.500,2585.000,1.000,982.000,5.000,0
"03/11/08","19:00:24",212881.000,"cc",28279.307,6.00,6,0.100,187283.000,0.200,19066.000,0.300,2878.000,0.500,2634.000,1.000,1020.000,5.000,0
"03/11/08","19:00:30",181076.000,"cc",28349.527,6.00,6,0.100,158797.000,0.200,15939.000,0.300,2729.000,0.500,2610.000,1.000,1001.000,5.000,0
"03/11/08","19:00:36",252216.000,"cc",28318.402,6.00,6,0.100,221735.000,0.200,23534.000,0.300,3123.000,0.500,2756.000,1.000,1068.000,5.000,0
"03/11/08","19:00:42",199128.000,"cc",28345.729,6.00,6,0.100,174387.000,0.200,18103.000,0.300,2868.000,0.500,2776.000,1.000,994.000,5.000,0
"03/11/08","19:00:48",137523.000,"cc",28337.750,6.00,6,0.100,119390.000,0.200,11860.000,0.300,2664.000,0.500,2669.000,1.000,940.000,5.000,0
"03/11/08","19:00:54",189001.000,"cc",28296.773,6.00,6,0.100,153464.000,0.200,28394.000,0.300,3378.000,0.500,2745.000,1.000,1020.000,5.000,0
"03/11/08","19:01:00",363004.000,"cc",28305.934,6.00,6,0.100,304327.000,0.200,50627.000,0.300,4256.000,0.500,2791.000,1.000,1002.000,5.000,1.000
"03/11/08","19:01:06",227572.000,"cc",28315.654,6.00,6,0.100,200216.000,0.200,20736.000,0.300,2989.000,0.500,2638.000,1.000,993.000,5.000,0
"03/11/08","19:01:12",225628.000,"cc",28315.660,6.00,6,0.100,198970.000,0.200,20203.000,0.300,2737.000,0.500,2709.000,1.000,1009.000,5.000,0
"03/11/08","19:01:18",255884.000,"cc",28363.912,6.00,6,0.100,213858.000,0.200,34753.000,0.300,3630.000,0.500,2598.000,1.000,1045.000,5.000,0
"03/11/08","19:01:24",214882.000,"cc",28294.838,6.00,6,0.100,142454.000,0.200,63288.000,0.300,5279.000,0.500,2813.000,1.000,1048.000,5.000,0
"03/11/08","19:01:30",357206.000,"cc",28292.387,6.00,6,0.100,311997.000,0.200,37799.000,0.300,3819.000,0.500,2647.000,1.000,944.000,5.000,0
"03/11/08","19:01:36",289887.000,"cc",28304.217,6.00,6,0.100,254308.000,0.200,28425.000,0.300,3431.000,0.500,2695.000,1.000,1028.000,5.000,0
"03/11/08","19:01:42",239201.000,"cc",28362.188,6.00,6,0.100,210221.000,0.200,22141.000,0.300,3127.000,0.500,2722.000,1.000,990.000,5.000,0
"03/11/08","19:01:48",231790.000,"cc",28335.086,6.00,6,0.100,202954.000,0.200,21984.000,0.300,3115.000,0.500,2724.000,1.000,1013.000,5.000,0
"03/11/08","19:01:54",339486.000,"cc",28283.984,6.00,6,0.100,296049.000,0.200,36024.000,0.300,3634.000,0.500,2718.000,1.000,1061.000,5.000,0
"03/11/08","19:02:00",329937.000,"cc",28298.012,6.00,6,0.100,288182.000,0.200,34356.000,0.300,3482.000,0.500,2837.000,1.000,1080.000,5.000,0
"03/11/08","19:02:06",242198.000,"cc",28250.629,6.00,6,0.100,213012.000,0.200,22341.000,0.300,3103.000,0.500,2711.000,1.000,1031.000,5.000,0
"03/11/08","19:02:12",231356.000,"cc",28335.674,6.00,6,0.100,203448.000,0.200,21374.000,0.300,2974.000,0.500,2560.000,1.000,1000.000,5.000,0
"03/11/08","19:02:18",325235.000,"cc",28325.580,6.00,6,0.100,284456.000,0.200,33642.000,0.300,3482.000,0.500,2644.000,1.000,1011.000,5.000,0
"03/11/08","19:02:24",158060.000,"cc",28293.139,6.00,6,0.100,137390.000,0.200,14254.000,0.300,2745.000,0.500,2659.000,1.000,1012.000,5.000,0
"03/11/08","19:02:30",258658.000,"cc",28332.895,6.00,6,0.100,226912.000,0.200,25077.000,0.300,3008.000,0.500,2629.000,1.000,1032.000,5.000,0
"03/11/08","19:02:36",306424.000,"cc",28333.766,6.00,6,0.100,258327.000,0.200,40547.000,0.300,3812.000,0.500,2749.000,1.000,989.000,5.000,0
"03/11/08","19:02:42",285205.000,"cc",28375.141,6.00,6,0.100,239322.000,0.200,38501.000,0.300,3735.000,0.500,2653.000,1.000,994.000,5.000,0
"03/11/08","19:02:48",235901.000,"cc",28284.088,6.00,6,0.100,174199.000,0.200,53563.000,0.300,4375.000,0.500,2728.000,1.000,1036.000,5.000,0
"03/11/08","19:02:54",318811.000,"cc",28299.219,6.00,6,0.100,278733.000,0.200,32851.000,0.300,3450.000,0.500,2751.000,1.000,1026.000,5.000,0
"03/11/08","19:03:00",304372.000,"cc",28313.975,6.00,6,0.100,266368.000,0.200,30718.000,0.300,3370.000,0.500,2826.000,1.000,1090.000,5.000,0
"03/11/08","19:03:06",263299.000,"cc",28335.391,6.00,6,0.100,231330.000,0.200,25057.000,0.300,3039.000,0.500,2806.000,1.000,1067.000,5.000,0
"03/11/08","19:03:12",295758.000,"cc",28296.236,6.00,6,0.100,260438.000,0.200,28307.000,0.300,3191.000,0.500,2795.000,1.000,1027.000,5.000,0
"03/11/08","19:03:18",287340.000,"cc",28328.031,6.00,6,0.100,230687.000,0.200,48526.000,0.300,4123.000,0.500,2919.000,1.000,1085.000,5.000,0
"03/11/08","19:03:24",230443.000,"cc",28332.088,6.00,6,0.100,170945.000,0.200,51202.000,0.300,4339.000,0.500,2832.000,1.000,1125.000,5.000,0
"03/11/08","19:03:30",320067.000,"cc",28343.584,6.00,6,0.100,256166.000,0.200,55613.000,0.300,4436.000,0.500,2795.000,1.000,1057.000,5.000,0
"03/11/08","19:03:36",343939.000,"cc",28294.586,6.00,6,0.100,302142.000,0.200,34651.000,0.300,3463.000,0.500,2738.000,1.000,945.000,5.000,0
"03/11/08","19:03:42",318741.000,"cc",28258.275,6.00,6,0.100,280241.000,0.200,31355.000,0.300,3450.000,0.500,2637.000,1.000,1058.000,5.000,0
"03/11/08","19:03:48",294761.000,"cc",28309.209,6.00,6,0.100,259184.000,0.200,28445.000,0.300,3363.000,0.500,2702.000,1.000,1067.000,5.000,0
"03/11/08","19:03:54",329567.000,"cc",28339.648,6.00,6,0.100,290132.000,0.200,32442.000,0.300,3372.000,0.500,2600.000,1.000,1021.000,5.000,0
"03/11/08","19:04:00",300233.000,"cc",28298.447,6.00,6,0.100,253769.000,0.200,38882.000,0.300,3819.000,0.500,2716.000,1.000,1047.000,5.000,0
"03/11/08","19:04:06",195737.000,"cc",28345.615,6.00,6,0.100,172525.000,0.200,16635.000,0.300,2876.000,0.500,2690.000,1.000,1011.000,5.000,0
"03/11/08","19:04:12",169256.000,"cc",28449.164,6.00,6,0.100,148429.000,0.200,14497.000,0.300,2701.000,0.500,2651.000,1.000,978.000,5.000,0
"03/11/08","19:04:18",252407.000,"cc",28315.342,6.00,6,0.100,222875.000,0.200,22733.000,0.300,3068.000,0.500,2726.000,1.000,1005.000,5.000,0
"03/11/08","19:04:24",186924.000,"cc",28264.389,6.00,6,0.100,164470.000,0.200,16118.000,0.300,2692.000,0.500,2602.000,1.000,1042.000,5.000,0
"03/11/08","19:04:30",189011.000,"cc",28309.070,6.00,6,0.100,166411.000,0.200,16295.000,0.300,2714.000,0.500,2604.000,1.000,987.000,5.000,0
"03/11/08","19:04:36",281268.000,"cc",28300.078,6.00,6,0.100,248172.000,0.200,26293.000,0.300,3175.000,0.500,2636.000,1.000,992.000,5.000,0
"03/11/08","19:04:42",235393.000,"cc",28296.084,6.00,6,0.100,207860.000,0.200,20937.000,0.300,2967.000,0.500,2606.000,1.000,1023.000,5.000,0
"03/11/08","19:04:48",150391.000,"cc",28354.805,6.00,6,0.100,131889.000,0.200,12481.000,0.300,2538.000,0.500,2568.000,1.000,915.000,5.000,0
"03/11/08","19:04:54",235799.000,"cc",28321.059,6.00,6,0.100,208310.000,0.200,20939.000,0.300,2977.000,0.500,2595.000,1.000,978.000,5.000,0
"03/11/08","19:05:00",247765.000,"cc",28267.459,6.00,6,0.100,219244.000,0.200,21810.000,0.300,3072.000,0.500,2676.000,1.000,963.000,5.000,0
"03/11/08","19:05:06",332416.000,"cc",28273.143,6.00,6,0.100,291517.000,0.200,33501.000,0.300,3738.000,0.500,2712.000,1.000,948.000,5.000,0
"03/11/08","19:05:12",271393.000,"cc",28317.518,6.00,6,0.100,228670.000,0.200,35358.000,0.300,3745.000,0.500,2665.000,1.000,955.000,5.000,0
"03/11/08","19:05:18",226099.000,"cc",28312.309,6.00,6,0.100,199348.000,0.200,20275.000,0.300,2904.000,0.500,2623.000,1.000,949.000,5.000,0
"03/11/08","19:05:24",198093.000,"cc",28366.707,6.00,6,0.100,174190.000,0.200,17460.000,0.300,2756.000,0.500,2631.000,1.000,1056.000,5.000,0
"03/11/08","19:05:30",201567.000,"cc",28322.945,6.00,6,0.100,177069.000,0.200,18116.000,0.300,2801.000,0.500,2567.000,1.000,1013.000,5.000,1.000
"03/11/08","19:05:36",244335.000,"cc",28316.397,6.00,6,0.100,215206.000,0.200,22362.000,0.300,3059.000,0.500,2659.000,1.000,1049.000,5.000,0
"03/11/08","19:05:42",336130.000,"cc",28336.824,6.00,6,0.100,282500.000,0.200,45583.000,0.300,4345.000,0.500,2681.000,1.000,1021.000,5.000,0
"03/11/08","19:05:48",297318.000,"cc",28320.018,6.00,6,0.100,237951.000,0.200,50799.000,0.300,4748.000,0.500,2771.000,1.000,1049.000,5.000,0
"03/11/08","19:05:54",297376.000,"cc",28308.660,6.00,6,0.100,233651.000,0.200,54620.000,0.300,5332.000,0.500,2829.000,1.000,944.000,5.000,0
"03/11/08","19:06:00",309334.000,"cc",28306.443,6.00,6,0.100,271028.000,0.200,31098.000,0.300,3566.000,0.500,2669.000,1.000,973.000,5.000,0
"03/11/08","19:06:06",313970.000,"cc",28315.600,6.00,6,0.100,264298.000,0.200,41864.000,0.300,4140.000,0.500,2691.000,1.000,977.000,5.000,0
"03/11/08","19:06:12",379546.000,"cc",28323.770,6.00,6,0.100,330915.000,0.200,40771.000,0.300,4145.000,0.500,2744.000,1.000,971.000,5.000,0
"03/11/08","19:06:18",275353.000,"cc",28356.289,6.00,6,0.100,231104.000,0.200,36630.000,0.300,3801.000,0.500,2796.000,1.000,1022.000,5.000,0
"03/11/08","19:06:24",267711.000,"cc",28268.695,6.00,6,0.100,234922.000,0.200,25882.000,0.300,3222.000,0.500,2702.000,1.000,983.000,5.000,0
"03/11/08","19:06:30",215265.000,"cc",28305.400,6.00,6,0.100,127240.000,0.200,78104.000,0.300,6202.000,0.500,2742.000,1.000,977.000,5.000,0
"03/11/08","19:06:36",191531.000,"cc",28319.518,6.00,6,0.100,94720.000,0.200,86595.000,0.300,6375.000,0.500,2825.000,1.000,1016.000,5.000,0
"03/11/08","19:06:42",230431.000,"cc",28283.045,6.00,6,0.100,128381.000,0.200,90723.000,0.300,7541.000,0.500,2827.000,1.000,959.000,5.000,0
"03/11/08","19:06:48",399316.000,"cc",28310.643,6.00,6,0.100,244353.000,0.200,136628.000,0.300,14238.000,0.500,3045.000,1.000,1052.000,5.000,0
"03/11/08","19:06:54",416627.000,"cc",28327.705,6.00,6,0.100,259883.000,0.200,138902.000,0.300,13629.000,0.500,3160.000,1.000,1053.000,5.000,0
"03/11/08","19:07:00",417616.000,"cc",28285.270,6.00,6,0.100,252257.000,0.200,144280.000,0.300,16894.000,0.500,3178.000,1.000,1007.000,5.000,0
"03/11/08","19:07:06",334543.000,"cc",28380.039,6.00,6,0.100,208457.000,0.200,112373.000,0.300,9817.000,0.500,2933.000,1.000,963.000,5.000,0
"03/11/08","19:07:12",236145.000,"cc",28316.977,6.00,6,0.100,153697.000,0.200,73008.000,0.300,5570.000,0.500,2817.000,1.000,1053.000,5.000,0
"03/11/08","19:07:18",273650.000,"cc",28343.994,6.00,6,0.100,197049.000,0.200,67259.000,0.300,5314.000,0.500,2955.000,1.000,1073.000,5.000,0
"03/11/08","19:07:24",300468.000,"cc",28285.365,6.00,6,0.100,244303.000,0.200,47980.000,0.300,4290.000,0.500,2834.000,1.000,1061.000,5.000,0
"03/11/08","19:07:30",276785.000,"cc",28337.352,6.00,6,0.100,244606.000,0.200,24915.000,0.300,3326.000,0.500,2851.000,1.000,1087.000,5.000,0
"03/11/08","19:07:36",295297.000,"cc",28254.566,6.00,6,0.100,253428.000,0.200,34488.000,0.300,3607.000,0.500,2787.000,1.000,987.000,5.000,0
"03/11/08","19:07:42",245309.000,"cc",28336.109,6.00,6,0.100,200026.000,0.200,37727.000,0.300,3637.000,0.500,2804.000,1.000,1115.000,5.000,0
"03/11/08","19:07:48",296620.000,"cc",28338.783,6.00,6,0.100,250804.000,0.200,37992.000,0.300,3862.000,0.500,2941.000,1.000,1021.000,5.000,0
"03/11/08","19:07:54",223456.000,"cc",28324.334,6.00,6,0.100,170218.000,0.200,45324.000,0.300,3956.000,0.500,2886.000,1.000,1072.000,5.000,0
"03/11/08","19:08:00",297041.000,"cc",28282.283,6.00,6,0.100,263258.000,0.200,26753.000,0.300,3163.000,0.500,2826.000,1.000,1041.000,5.000,0
"03/11/08","19:08:06",251337.000,"cc",28293.709,6.00,6,0.100,214764.000,0.200,29474.000,0.300,3293.000,0.500,2763.000,1.000,1043.000,5.000,0
"03/11/08","19:08:12",373128.000,"cc",28399.668,6.00,6,0.100,328562.000,0.200,37203.000,0.300,3522.000,0.500,2814.000,1.000,1027.000,5.000,0
"03/11/08","19:08:18",275568.000,"cc",28306.211,6.00,6,0.100,234410.000,0.200,33975.000,0.300,3415.000,0.500,2753.000,1.000,1015.000,5.000,0
"03/11/08","19:08:24",324973.000,"cc",28237.344,6.00,6,0.100,288613.000,0.200,29616.000,0.300,3131.000,0.500,2560.000,1.000,1053.000,5.000,0
"03/11/08","19:08:30",278488.000,"cc",28302.094,6.00,6,0.100,235779.000,0.200,35542.000,0.300,3486.000,0.500,2688.000,1.000,993.000,5.000,0
"03/11/08","19:08:36",216941.000,"cc",28344.248,6.00,6,0.100,182120.000,0.200,28012.000,0.300,3254.000,0.500,2640.000,1.000,915.000,5.000,0
"03/11/08","19:08:42",295970.000,"cc",28323.080,6.00,6,0.100,248529.000,0.200,40063.000,0.300,3751.000,0.500,2633.000,1.000,994.000,5.000,0
"03/11/08","19:08:48",364292.000,"cc",28289.332,6.00,6,0.100,321095.000,0.200,36026.000,0.300,3552.000,0.500,2642.000,1.000,977.000,5.000,0
"03/11/08","19:08:54",334275.000,"cc",28278.496,6.00,6,0.100,296086.000,0.200,31385.000,0.300,3289.000,0.500,2553.000,1.000,962.000,5.000,0
"03/11/08","19:09:00",276839.000,"cc",28338.857,6.00,6,0.100,234998.000,0.200,34823.000,0.300,3479.000,0.500,2612.000,1.000,927.000,5.000,0
"03/11/08","19:09:06",188901.000,"cc",28260.293,6.00,6,0.100,125464.000,0.200,55191.000,0.300,4662.000,0.500,2647.000,1.000,937.000,5.000,0
"03/11/08","19:09:12",334527.000,"cc",28355.350,6.00,6,0.100,283531.000,0.200,43002.000,0.300,4110.000,0.500,2851.000,1.000,1033.000,5.000,0
"03/11/08","19:09:18",179762.000,"cc",28332.027,6.00,6,0.100,159449.000,0.200,14144.000,0.300,2623.000,0.500,2599.000,1.000,947.000,5.000,0
"03/11/08","19:09:24",268159.000,"cc",28318.377,6.00,6,0.100,237205.000,0.200,24200.000,0.300,3101.000,0.500,2698.000,1.000,955.000,5.000,0
"03/11/08","19:09:30",328577.000,"cc",28328.318,6.00,6,0.100,279568.000,0.200,41469.000,0.300,3873.000,0.500,2680.000,1.000,987.000,5.000,0
"03/11/08","19:09:36",278499.000,"cc",28299.586,6.00,6,0.100,245803.000,0.200,25837.000,0.300,3191.000,0.500,2727.000,1.000,941.000,5.000,0
"03/11/08","19:09:42",249968.000,"cc",28363.797,6.00,6,0.100,221949.000,0.200,21434.000,0.300,2931.000,0.500,2707.000,1.000,947.000,5.000,0
"03/11/08","19:09:48",251301.000,"cc",28312.215,6.00,6,0.100,202259.000,0.200,41349.000,0.300,4025.000,0.500,2683.000,1.000,985.000,5.000,0
"03/11/08","19:09:54",273656.000,"cc",28319.363,6.00,6,0.100,242006.000,0.200,24769.000,0.300,3200.000,0.500,2725.000,1.000,956.000,5.000,0
"03/11/08","19:10:00",327466.000,"cc",28332.348,6.00,6,0.100,288935.000,0.200,31508.000,0.300,3361.000,0.500,2711.000,1.000,951.000,5.000,0
"03/11/08","19:10:06",291733.000,"cc",28264.971,6.00,6,0.100,257315.000,0.200,27384.000,0.300,3351.000,0.500,2722.000,1.000,961.000,5.000,0
"03/11/08","19:10:12",255694.000,"cc",28285.613,6.00,6,0.100,225900.000,0.200,22809.000,0.300,3232.000,0.500,2742.000,1.000,1011.000,5.000,0
"03/11/08","19:10:18",201926.000,"cc",28303.881,6.00,6,0.100,177924.000,0.200,17400.000,0.300,2842.000,0.500,2734.000,1.000,1026.000,5.000,0
"03/11/08","19:10:24",141847.000,"cc",28397.139,6.00,6,0.100,123944.000,0.200,11706.000,0.300,2552.000,0.500,2667.000,1.000,978.000,5.000,0
"03/11/08","19:10:30",239720.000,"cc",28346.465,6.00,6,0.100,210315.000,0.200,22539.000,0.300,3128.000,0.500,2694.000,1.000,1044.000,5.000,0
"03/11/08","19:10:36",205370.000,"cc",28320.391,6.00,6,0.100,180244.000,0.200,18216.000,0.300,3040.000,0.500,2853.000,1.000,1017.000,5.000,0
"03/11/08","19:10:42",183125.000,"cc",28293.584,6.00,6,0.100,160493.000,0.200,15974.000,0.300,2874.000,0.500,2786.000,1.000,998.000,5.000,0
"03/11/08","19:10:48",250127.000,"cc",28352.055,6.00,6,0.100,219950.000,0.200,22828.000,0.300,3433.000,0.500,2893.000,1.000,1023.000,5.000,0
"03/11/08","19:10:54",231578.000,"cc",28295.918,6.00,6,0.100,203693.000,0.200,20820.000,0.300,3139.000,0.500,2867.000,1.000,1059.000,5.000,0
"03/11/08","19:11:00",200939.000,"cc",28352.008,6.00,6,0.100,176726.000,0.200,17617.000,0.300,2865.000,0.500,2740.000,1.000,991.000,5.000,0
"03/11/08","19:11:06",336196.000,"cc",28320.504,6.00,6,0.100,294562.000,0.200,34080.000,0.300,3615.000,0.500,2892.000,1.000,1047.000,5.000,0
"03/11/08","19:11:12",218096.000,"cc",28273.539,6.00,6,0.100,191080.000,0.200,20277.000,0.300,2925.000,0.500,2796.000,1.000,1018.000,5.000,0
"03/11/08","19:11:18",261343.000,"cc",28307.106,6.00,6,0.100,229334.000,0.200,24732.000,0.300,3388.000,0.500,2882.000,1.000,1007.000,5.000,0
"03/11/08","19:11:24",171629.000,"cc",28288.250,6.00,6,0.100,150878.000,0.200,14707.000,0.300,2522.000,0.500,2595.000,1.000,927.000,5.000,0
"03/11/08","19:11:30",175119.000,"cc",28339.297,6.00,6,0.100,153799.000,0.200,15162.000,0.300,2692.000,0.500,2538.000,1.000,928.000,5.000,0
"03/11/08","19:11:36",180506.000,"cc",28306.979,6.00,6,0.100,157836.000,0.200,15970.000,0.300,2934.000,0.500,2752.000,1.000,1014.000,5.000,0
"03/11/08","19:11:42",76867.000,"cc",28308.525,6.00,6,0.100,64473.000,0.200,6358.000,0.300,2352.000,0.500,2672.000,1.000,1012.000,5.000,0
"03/11/08","19:11:48",59036.000,"cc",28327.934,6.00,6,0.100,48101.000,0.200,5008.000,0.300,2294.000,0.500,2657.000,1.000,976.000,5.000,0
"03/11/08","19:11:54",101437.000,"cc",28271.518,6.00,6,0.100,86746.000,0.200,8627.000,0.300,2477.000,0.500,2633.000,1.000,954.000,5.000,0
"03/11/08","19:12:00",110001.000,"cc",28346.988,6.00,6,0.100,94040.000,0.200,9379.000,0.300,2718.000,0.500,2815.000,1.000,1049.000,5.000,0
"03/11/08","19:12:06",54445.000,"cc",28286.641,6.00,6,0.100,43812.000,0.200,4719.000,0.300,2334.000,0.500,2625.000,1.000,955.000,5.000,0
"03/11/08","19:12:12",107695.000,"cc",28302.586,6.00,6,0.100,92442.000,0.200,8964.000,0.300,2540.000,0.500,2810.000,1.000,939.000,5.000,0
"03/11/08","19:12:18",71688.000,"cc",28330.336,6.00,6,0.100,59601.000,0.200,6082.000,0.300,2365.000,0.500,2670.000,1.000,970.000,5.000,0
"03/11/08","19:12:24",43549.000,"cc",28295.815,6.00,6,0.100,33898.000,0.200,3982.000,0.300,2286.000,0.500,2488.000,1.000,895.000,5.000,0
"03/11/08","19:12:30",38313.000,"cc",28313.582,6.00,6,0.100,29320.000,0.200,3403.000,0.300,2129.000,0.500,2545.000,1.000,916.000,5.000,0
"03/11/08","19:12:36",34253.000,"cc",28339.770,6.00,6,0.100,25634.000,0.200,3160.000,0.300,2081.000,0.500,2460.000,1.000,918.000,5.000,0
"03/11/08","19:12:42",31670.000,"cc",28300.758,6.00,6,0.100,23097.000,0.200,2996.000,0.300,2098.000,0.500,2544.000,1.000,935.000,5.000,0
"03/11/08","19:12:48",29829.000,"cc",28345.389,6.00,6,0.100,21430.000,0.200,2868.000,0.300,2165.000,0.500,2475.000,1.000,891.000,5.000,0
"03/11/08","19:12:54",29793.000,"cc",28308.193,6.00,6,0.100,21306.000,0.200,2893.000,0.300,2139.000,0.500,2576.000,1.000,879.000,5.000,0
"03/11/08","19:13:00",28066.000,"cc",28286.928,6.00,6,0.100,19766.000,0.200,2774.000,0.300,2099.000,0.500,2543.000,1.000,884.000,5.000,0
"03/11/08","19:13:06",27339.000,"cc",28343.231,6.00,6,0.100,19025.000,0.200,2675.000,0.300,2121.000,0.500,2566.000,1.000,952.000,5.000,0
"03/11/08","19:13:12",28113.000,"cc",28286.590,6.00,6,0.100,19517.000,0.200,2809.000,0.300,2172.000,0.500,2666.000,1.000,949.000,5.000,0
"03/11/08","19:13:18",27413.000,"cc",28373.863,6.00,6,0.100,18979.000,0.200,2738.000,0.300,2152.000,0.500,2603.000,1.000,941.000,5.000,0
"03/11/08","19:13:24",27194.000,"cc",28334.258,6.00,6,0.100,18851.000,0.200,2693.000,0.300,2135.000,0.500,2580.000,1.000,935.000,5.000,0
"03/11/08","19:13:30",27565.000,"cc",28301.961,6.00,6,0.100,19284.000,0.200,2731.000,0.300,2107.000,0.500,2528.000,1.000,915.000,5.000,0
"03/11/08","19:13:36",26739.000,"cc",28345.322,6.00,6,0.100,18533.000,0.200,2634.000,0.300,2072.000,0.500,2556.000,1.000,944.000,5.000,0
"03/11/08","19:13:42",26809.000,"cc",28290.565,6.00,6,0.100,18609.000,0.200,2653.000,0.300,2068.000,0.500,2587.000,1.000,892.000,5.000,0
"03/11/08","19:13:48",27027.000,"cc",28321.449,6.00,6,0.100,18588.000,0.200,2753.000,0.300,2154.000,0.500,2614.000,1.000,918.000,5.000,0
"03/11/08","19:13:54",26800.000,"cc",28292.969,6.00,6,0.100,18571.000,0.200,2680.000,0.300,2039.000,0.500,2559.000,1.000,951.000,5.000,0
"03/11/08","19:14:00",27342.000,"cc",28332.203,6.00,6,0.100,19029.000,0.200,2667.000,0.300,2112.000,0.500,2548.000,1.000,986.000,5.000,0
"03/11/08","19:14:06",26622.000,"cc",28359.713,6.00,6,0.100,18470.000,0.200,2685.000,0.300,2062.000,0.500,2471.000,1.000,934.000,5.000,0
"03/11/08","19:14:12",26736.000,"cc",28337.660,6.00,6,0.100,18471.000,0.200,2660.000,0.300,2105.000,0.500,2602.000,1.000,898.000,5.000,0
"03/11/08","19:14:18",26453.000,"cc",28312.861,6.00,6,0.100,18152.000,0.200,2588.000,0.300,2192.000,0.500,2557.000,1.000,964.000,5.000,0
"03/11/08","19:14:24",26789.000,"cc",28342.236,6.00,6,0.100,18356.000,0.200,2720.000,0.300,2176.000,0.500,2601.000,1.000,936.000,5.000,0
"03/11/08","19:14:30",26057.000,"cc",28382.322,6.00,6,0.100,17882.000,0.200,2554.000,0.300,2063.000,0.500,2563.000,1.000,995.000,5.000,0
"03/11/08","19:14:36",26314.000,"cc",28250.320,6.00,6,0.100,17936.000,0.200,2623.000,0.300,2156.000,0.500,2620.000,1.000,979.000,5.000,0
"03/11/08","19:14:42",26425.000,"cc",28299.869,6.00,6,0.100,18029.000,0.200,2695.000,0.300,2196.000,0.500,2553.000,1.000,952.000,5.000,0
"03/11/08","19:14:48",25883.000,"cc",28353.037,6.00,6,0.100,17693.000,0.200,2667.000,0.300,2067.000,0.500,2489.000,1.000,967.000,5.000,0
"03/11/08","19:14:54",26128.000,"cc",28295.350,6.00,6,0.100,17910.000,0.200,2533.000,0.300,2157.000,0.500,2587.000,1.000,941.000,5.000,0
"03/11/08","19:15:00",25808.000,"cc",28226.150,6.00,6,0.100,17657.000,0.200,2558.000,0.300,2129.000,0.500,2528.000,1.000,935.000,5.000,1.000
"03/11/08","19:15:06",26632.000,"cc",28330.352,6.00,6,0.100,18116.000,0.200,2726.000,0.300,2209.000,0.500,2619.000,1.000,962.000,5.000,0
"03/11/08","19:15:12",26072.000,"cc",28385.229,6.00,6,0.100,17872.000,0.200,2598.000,0.300,2150.000,0.500,2585.000,1.000,867.000,5.000,0
"03/11/08","19:15:18",25815.000,"cc",28301.207,6.00,6,0.100,17690.000,0.200,2591.000,0.300,2081.000,0.500,2502.000,1.000,951.000,5.000,0
"03/11/08","19:15:24",25850.000,"cc",28343.865,6.00,6,0.100,17673.000,0.200,2528.000,0.300,2103.000,0.500,2574.000,1.000,972.000,5.000,0
"03/11/08","19:15:30",25654.000,"cc",28400.799,6.00,6,0.100,17373.000,0.200,2571.000,0.300,2133.000,0.500,2584.000,1.000,993.000,5.000,0
"03/11/08","19:15:36",25418.000,"cc",28328.268,6.00,6,0.100,17299.000,0.200,2534.000,0.300,2083.000,0.500,2532.000,1.000,970.000,5.000,0
"03/11/08","19:15:42",25697.000,"cc",28267.645,6.00,6,0.100,17545.000,0.200,2525.000,0.300,2076.000,0.500,2589.000,1.000,962.000,5.000,0
"03/11/08","19:15:48",25499.000,"cc",28281.549,6.00,6,0.100,17355.000,0.200,2504.000,0.300,2002.000,0.500,2638.000,1.000,1000.000,5.000,0
"03/11/08","19:15:54",25445.000,"cc",28338.037,6.00,6,0.100,17439.000,0.200,2486.000,0.300,2098.000,0.500,2534.000,1.000,888.000,5.000,0
"03/11/08","19:16:00",25468.000,"cc",28259.818,6.00,6,0.100,17430.000,0.200,2569.000,0.300,2021.000,0.500,2511.000,1.000,937.000,5.000,0